Regional Weather Roundup
Issued by NWS Little Rock, AR

Home | Current Version | Previous Version | Graphics & Text | Print | Product List | Glossary On
Versions: 1 2 3 4 5 6 7 8 9 10 11 12 13 14 15 16 17 18 19 20 21 22 23 24 25 26 27 28 29 30 31 32 33 34 35 36 37 38 39 40 41 42 43 44 45 46 47 48 49 50
000
ASUS44 KLZK 221505
RWRLZK

WEATHER ROUNDUP FOR ARKANSAS
NATIONAL WEATHER SERVICE LITTLE ROCK AR
1000 AM CDT FRI AUG 22 2014

NOTE: "FAIR" INDICATES FEW OR NO CLOUDS BELOW 12,000 FEET WITH NO
SIGNIFICANT WEATHER AND/OR OBSTRUCTIONS TO VISIBILITY.

ARZ001-003-010-029-221600-
NORTHWEST ARKANSAS

CITY           SKY/WX    TMP DP  RH WIND       PRES   REMARKS
FAYETTEVILLE   MOSUNNY   84  71  65 S14G21    30.06S HX  89
FORT SMITH     SUNNY     86  72  62 S5        30.03F HX  92
HARRISON       PTSUNNY   86  71  60 MISG      30.08R HX  91
BENTONVILLE    PTSUNNY   82  72  69 SW15      30.07S HX  87
ROGERS         MOSUNNY   85  70  60 S13G21    30.08R HX  89
SILOAM SPGS    SUNNY     82  68  61 S9        30.07R HX  85
HIGHFILL       PTSUNNY   83  69  62 SW10      30.06R HX  86
SPRINGDALE     PTSUNNY   84  70  61 SW12G21   30.09R HX  88
$$

ARZ004-005-016-221600-
NORTH CENTRAL ARKANSAS

CITY           SKY/WX    TMP DP  RH WIND       PRES   REMARKS
BATESVILLE     SUNNY     88  73  62 SW8       30.05S HX  96
FLIPPIN        SUNNY     84  70  61 SW6       30.06R HX  88
MTN HOME       SUNNY     86  72  62 SW7       30.05S HX  92
$$

ARZ040-041-221600-
WEST CENTRAL ARKANSAS

CITY           SKY/WX    TMP DP  RH WIND       PRES   REMARKS
MENA           MOSUNNY   82  75  78 CALM      30.10S HX  89
MOUNT IDA      SUNNY     83  73  72 VRB6      30.06S HX  89
$$

ARZ009-017-025-026-028-221600-
NORTHEAST ARKANSAS

CITY           SKY/WX    TMP DP  RH WIND       PRES   REMARKS
CORNING        FAIR      84  75  74 SW12      30.06R HX  92
JONESBORO      MOSUNNY   85  75  72 SW8       30.06S HX  93
NEWPORT        SUNNY     86  76  71 S12       30.07R HX  96
WALNUT RIDGE   SUNNY     82  73  74 S9        30.04F HX  88
BLYTHEVILLE    SUNNY     84  77  79 SW13      30.07S HX  94
$$

ARZ022-023-033-042-044-221600-
CENTRAL ARKANSAS

CITY           SKY/WX    TMP DP  RH WIND       PRES   REMARKS
LITTLE ROCK    SUNNY     85  72  65 W9        30.08S HX  91
N LITTLE ROCK  SUNNY     84  75  75 SW7       30.08S HX  92
JACKSONVILLE   SUNNY     85  75  73 SW9       30.07F HX  93
SEARCY           N/A     85  77  77 CALM        N/A  HX  95
HOT SPRINGS    MOSUNNY   83  73  72 VRB7      30.08F HX  89
RUSSELLVILLE   SUNNY     85  74  69 VRB5      30.06S HX  92
CLINTON        FAIR      86  75  70 S8        30.06S HAZE    HX  95
$$

ARZ036-221600-
EAST ARKANSAS

CITY           SKY/WX    TMP DP  RH WIND       PRES   REMARKS
WEST MEMPHIS   SUNNY     84  77  79 SW8       30.07F HX  94
$$

ARZ050-053-066-070-073-221600-
SOUTHWEST ARKANSAS

CITY           SKY/WX    TMP DP  RH WIND       PRES   REMARKS
ARKADELPHIA    FAIR      85  77  77 SW7       30.08F HX  95
CAMDEN         SUNNY     82  73  74 W6        30.09S HX  88
TEXARKANA      MOSUNNY   82  74  76 SW10      30.09S HX  88
EL DORADO      SUNNY     83  73  72 SW12      30.10F HX  89
DE QUEEN       CLOUDY    80  74  81 SW8       30.07R HX  85
$$

ARZ056-057-069-221600-
SOUTHEAST ARKANSAS

CITY           SKY/WX    TMP DP  RH WIND       PRES   REMARKS
PINE BLUFF     SUNNY     84  73  69 SW7       30.08F HX  90
STUTTGART      SUNNY     84  75  74 SW10      30.09S HX  92
MONTICELLO     SUNNY     83  73  72 W8        30.09S HX  89

$$





USA.gov is the U.S. government's official web portal to all federal, state and local government web resources and services.